Tampa, FL

8:22 PM EST on February 10, 2016 (GMT -0500)
MacDill Air Force Base

Weather History for KMCF - September, 2012

Change the Weather History Date:

Saturday, September 8, 2012

  Actual Average Record
Temperature  
Mean Temperature 84 °F -  
Max Temperature 89 °F 87 °F 93 °F (1996)
Min Temperature 79 °F 73 °F 68 °F (1997)
Cooling Degree Days 19    
Growing Degree Days 34 (Base 50)    
Moisture  
Dew Point 78 °F    
Average Humidity 85    
Maximum Humidity 96    
Minimum Humidity 71    
Precipitation  
Precipitation 0.00 in - - ()
Sea Level Pressure  
Sea Level Pressure 29.92 in    
Wind  
Wind Speed 11 mph (West)    
Max Wind Speed 21 mph    
Max Gust Speed 25 mph    
Visibility 10 miles    
Events      
Averages and records for this station are not official NWS values.
T = Trace of Precipitation, MM = Missing Value Source: NWS Daily Summary

Daily Weather History Graph

Daily Weather History Graph

Search for Another Location

Airport or City:

Trip Planner

Search our weather history database for the weather conditions in past years. The results will help you decide how hot, cold, wet, or windy it might be!

Date:

Astronomy

Sep. 08, 2012 Rise Set
Actual Time 7:12 AM EDT 7:42 PM EDT
Civil Twilight 6:48 AM EDT 8:05 PM EDT
Nautical Twilight 6:21 AM EDT 8:33 PM EDT
Astronomical Twilight 5:52 AM EDT 9:01 PM EDT
Moon 12:15 AM EDT (9/8) 2:15 PM EDT (9/8)
Length of Visible Light 13h 17m
Length of Day
12h 30m
Waning Gibbous, 49% of the Moon is Illuminated
Sep 8
Waning Gibbous
Sep 15
New
Sep 22
First Quarter
Sep 29
Full
Oct 8
Last Quarter

Hourly Weather History & Observations

Time (EDT) Temp. Heat Index Dew Point Humidity Pressure Visibility Wind Dir Wind Speed Gust Speed Precip Events Conditions
12:55 AM 80.2 °F 86.6 °F 77.7 °F 92% 29.94 in 10.0 mi WSW 5.8 mph - N/A   Clear
1:55 AM 79.9 °F - 77.4 °F 92% 29.91 in 10.0 mi WSW 5.8 mph - N/A   Clear
2:55 AM 79.5 °F - 77.4 °F 93% 29.89 in 10.0 mi WSW 5.8 mph - N/A   Clear
3:55 AM 79.5 °F - 77.5 °F 94% 29.90 in 10.0 mi WSW 5.8 mph - N/A   Clear
4:55 AM 79.5 °F - 77.9 °F 95% 29.92 in 10.0 mi SW 5.8 mph - N/A   Clear
5:55 AM 79.0 °F - 77.9 °F 96% 29.94 in 10.0 mi SW 4.6 mph - N/A   Partly Cloudy
6:55 AM 79.0 °F - 77.7 °F 96% 29.94 in 10.0 mi Calm Calm - N/A   Partly Cloudy
7:55 AM 79.9 °F - 78.4 °F 95% 29.96 in 10.0 mi SW 5.8 mph - N/A   Clear
8:55 AM 81.7 °F 90.5 °F 78.4 °F 90% 29.97 in 10.0 mi SW 6.9 mph - N/A   Clear
9:55 AM 84.7 °F 97.8 °F 79.3 °F 84% 29.98 in 10.0 mi West 9.2 mph - N/A   Clear
10:55 AM 87.3 °F 100.4 °F 77.9 °F 74% 29.98 in 10.0 mi West 12.7 mph - N/A   Clear
11:55 AM 88.5 °F 103.5 °F 78.8 °F 73% 29.98 in 10.0 mi West 19.6 mph - N/A   Partly Cloudy
12:55 PM 88.3 °F 102.3 °F 78.4 °F 72% 29.96 in 10.0 mi West 18.4 mph 25.3 mph N/A   Partly Cloudy
1:55 PM 87.8 °F 102.5 °F 78.8 °F 75% 29.94 in 10.0 mi West 19.6 mph - N/A   Clear
2:55 PM 89.2 °F 105.0 °F 79.3 °F 72% 29.91 in 10.0 mi West 20.7 mph 25.3 mph N/A   Clear
3:55 PM 88.9 °F 103.3 °F 78.4 °F 71% 29.91 in 10.0 mi West 18.4 mph 25.3 mph N/A   Clear
4:55 PM 87.8 °F 102.5 °F 78.8 °F 75% 29.90 in 10.0 mi West 19.6 mph - N/A   Clear
5:55 PM 86.2 °F 97.8 °F 77.4 °F 75% 29.90 in 10.0 mi WNW 15.0 mph - N/A   Partly Cloudy
6:55 PM 84.0 °F 93.7 °F 76.8 °F 79% 29.91 in 10.0 mi WNW 12.7 mph - N/A   Partly Cloudy
7:55 PM 82.9 °F 92.4 °F 77.5 °F 84% 29.91 in 10.0 mi West 15.0 mph - N/A   Mostly Cloudy
7:58 PM 82.4 °F 90.9 °F 77.0 °F 84% 29.91 in 10.0 mi West 15.0 mph 21.9 mph N/A   Mostly Cloudy
8:02 PM 82.4 °F 90.9 °F 77.0 °F 84% 29.91 in 10.0 mi WNW 16.1 mph 21.9 mph N/A   Mostly Cloudy
8:55 PM 82.4 °F 91.5 °F 77.9 °F 86% 29.90 in 10.0 mi West 17.3 mph - N/A   Partly Cloudy
9:14 PM 82.4 °F 92.4 °F 78.8 °F 89% 29.90 in 10.0 mi West 17.3 mph 21.9 mph N/A   Mostly Cloudy
9:19 PM 82.4 °F 90.9 °F 77.0 °F 84% 29.90 in 10.0 mi West 19.6 mph 25.3 mph N/A   Scattered Clouds
9:55 PM 82.4 °F 91.8 °F 78.3 °F 87% 29.91 in 10.0 mi West 17.3 mph - N/A   Clear
10:47 PM 82.4 °F 92.4 °F 78.8 °F 89% 29.91 in 10.0 mi West 16.1 mph - N/A   Mostly Cloudy
10:49 PM 82.4 °F 90.9 °F 77.0 °F 84% 29.91 in 10.0 mi WNW 18.4 mph - N/A   Scattered Clouds
10:55 PM 82.8 °F 92.2 °F 77.9 °F 85% 29.91 in 10.0 mi West 17.3 mph - N/A   Scattered Clouds
11:32 PM 82.4 °F 92.4 °F 78.8 °F 89% 29.91 in 10.0 mi WNW 17.3 mph - N/A   Mostly Cloudy
11:38 PM 82.4 °F 92.4 °F 78.8 °F 89% 29.91 in 10.0 mi WNW 13.8 mph - N/A   Mostly Cloudy
11:55 PM 82.6 °F 92.3 °F 78.3 °F 87% 29.91 in 10.0 mi WNW 17.3 mph - N/A   Partly Cloudy